DELTA 1 DEB, 10649

Orbit data source: Space-Track

DELTA 1 DEB, 10649 is space debris in LEO originally from a launch on Thu, 29 Jul 1976 UTC launched from the Air Force Western Test Range (AFWTR). Debris objects in space refer to the collection of defunct objects orbiting the Earth. Examples of debris include non-operational satellites, rocket bodies, and fragments generated from explosions, collisions, or faulty payload assembly.

Loading next visibility...
Identifier
10649, 1976-077K
Orbit
LEO
Country
Flag of USUS
Related business
Manufacturer
Unknown
Mission
Spacecraft
Bus & Motor
Unknown
Mass
Unknown
Launch date (UTC)
1976-07-29 (50 years ago)
Launch vehicle
Unknown
Launch site
Air Force Western Test Range (AFWTR)
Object type
Payload
Rocket body
Debris
Shape & HBR
Unknown shape, 0.3 m
Radar Cross Section
Medium (>0.1 m² and <1 m²)

Expand to show TLE details & history
Last TLE update: 2 days ago

TLE from 2 days ago
0 DELTA 1 DEB
1 10649U 76077K   26171.27643374  .00000145  00000-0  23662-2 0  9991
2 10649 102.2946  96.7778 0377251  88.7691  61.5122 11.80271583136670
Epoch: 2026-06-20T06:38Z
TLE epoch observation values (Epoch: 2026-06-20T06:38:03.875Z)
Latitude
25.23005°
Longitude
-85.36605°
Altitude
1,635.63 km
Speed
7.115 km/s
True Right ascension
18h 50m 34s
True Declination
25° 06' 44"
Sunlit
Object was in full shadow at epoch
Visualization orbit readout
Latitude
Unknown
Longitude
Unknown
Altitude
Unknown
Speed
Unknown
Apparent Right ascension
Unknown
Apparent Declination
Unknown
Sunlit
N/A
Visualization observer readout
Local Sidereal Time
23:27:16
Azimuth
Unknown
Elevation
Unknown
Doppler factor
Unknown
Orbital elements
Apogee altitude
2,075.4 km
Perigee altitude
1,460.766 km
Semi-major axis
8,146.22 km
Eccentricity
0.03773
Inclination
102.2946°
RAAN
96.7778°
Arg. of periapsis
88.7691°
True anomaly
65.39611°
Mean anomaly
61.5122°
Eccentric anomaly
63.44568°
Mean motion
2.95195 °/min
Orbital period
121.95 mins
BSTAR
0.0023662
Loading maneuver chart data...
Computing Atmospheric mass density...
Loading historical data...
Loading historical data...
Loading historical data...
Loading historical data...
Loading historical data...
Loading historical data...
Loading historical data...

Documentation

Showing up to 5 results
|